COSMOS 1275 DEB, 39961

Orbit data source: Space-Track

COSMOS 1275 DEB, 39961 is space debris in LEO originally from a launch on Thu, 04 Jun 1981 UTC launched from the Plesetsk Missile And Space Complex (PKMTR). Debris objects in space refer to the collection of defunct objects orbiting the Earth. Examples of debris include non-operational satellites, rocket bodies, and fragments generated from explosions, collisions, or faulty payload assembly.

Loading next visibility...
Identifier
39961, 1981-053NX
Orbit
LEO
Country
Flag of CISCIS
Related business
Manufacturer
Unknown
Mission
Spacecraft
Bus & Motor
Unknown
Mass
Unknown
Launch date (UTC)
1981-06-04 (45 years ago)
Launch vehicle
Unknown
Launch site
Plesetsk Missile And Space Complex (PKMTR)
Object type
Payload
Rocket body
Debris
Shape & HBR
Unknown shape, 0.1 m
Radar Cross Section
Medium (>0.1 m² and <1 m²)

Expand to show TLE details & history
Last TLE update: 1 week ago

TLE from 1 week ago
0 COSMOS 1275 DEB
1 39961U 81053NX  26167.86924976  .00000760  00000-0  53797-3 0  9995
2 39961  82.7671 213.6637 0052139 299.0506 184.1526 13.96045748610449
Epoch: 2026-06-16T20:51Z
TLE epoch observation values (Epoch: 2026-06-16T20:51:43.179Z)
Latitude
56.24543°
Longitude
164.7091°
Altitude
954.801 km
Speed
7.36 km/s
True Right ascension
01h 31m 05s
True Declination
56° 05' 26"
Sunlit
Object was in daylight at epoch
Visualization orbit readout
Latitude
Unknown
Longitude
Unknown
Altitude
Unknown
Speed
Unknown
Apparent Right ascension
Unknown
Apparent Declination
Unknown
Sunlit
N/A
Visualization observer readout
Local Sidereal Time
14:13:34
Azimuth
Unknown
Elevation
Unknown
Doppler factor
Unknown
Orbital elements
Apogee altitude
942.618 km
Perigee altitude
866.675 km
Semi-major axis
7,282.784 km
Eccentricity
0.00521
Inclination
82.7671°
RAAN
213.6637°
Arg. of periapsis
299.0506°
True anomaly
184.10961°
Mean anomaly
184.1526°
Eccentric anomaly
184.13108°
Mean motion
3.49218 °/min
Orbital period
103.09 mins
BSTAR
0.00053797
Loading maneuver chart data...
Computing Atmospheric mass density...

Documentation

Showing up to 5 results
|